| time (UTC) | temp F | wind direction | speed knots | gust knots | rain 1hr in | rain 24hr in | rain mn in | humidity % | barometer mb |
| 20260504100615 | 0 | 208 | 0.0 | 0.0 | 0.00 | 0.00 | 0.00 | 1014.0 | |
| 20260504100113 | 0 | 212 | 0.0 | 0.0 | 0.00 | 0.00 | 0.00 | 1013.9 | |
| 20260504081506 | 0 | 222 | 0.0 | 0.0 | 0.00 | 0.00 | 0.00 | 1014.1 | |
| 20260504081001 | 0 | 224 | 0.0 | 0.0 | 0.00 | 0.00 | 0.00 | 1014.1 | |
| 20260504080458 | 0 | 227 | 0.0 | 0.0 | 0.00 | 0.00 | 0.00 | 1014.2 | |
| 20260504050311 | 0 | 227 | 0.0 | 0.0 | 0.00 | 0.00 | 0.00 | 1014.2 | |
| 20260504045808 | 0 | 225 | 0.0 | 0.0 | 0.00 | 0.00 | 0.00 | 1014.3 | |
| 20260504045304 | 0 | 226 | 0.0 | 0.0 | 0.00 | 0.00 | 0.00 | 1014.1 | |
| 20260504044800 | 0 | 224 | 0.0 | 0.0 | 0.00 | 0.00 | 0.00 | 1014.4 | |
| 20260504044258 | 0 | 213 | 0.0 | 0.0 | 0.00 | 0.00 | 0.00 | 1014.3 | |
| 20260504043755 | 0 | 217 | 0.0 | 0.0 | 0.00 | 0.00 | 0.00 | 1014.5 | |
| 20260504043251 | 0 | 221 | 0.0 | 0.0 | 0.00 | 0.00 | 0.00 | 1014.2 | |
| 20260504042749 | 0 | 215 | 0.0 | 0.0 | 0.00 | 0.00 | 0.00 | 1014.3 | |
| 20260504042245 | 0 | 230 | 0.0 | 0.0 | 0.00 | 0.00 | 0.00 | 1014.1 | |
| 20260504041742 | 0 | 225 | 0.0 | 0.0 | 0.00 | 0.00 | 0.00 | 1013.9 | |
| 20260504041238 | 0 | 219 | 0.0 | 0.0 | 0.00 | 0.00 | 0.00 | 1014.1 | |
| 20260504040734 | 0 | 226 | 0.0 | 0.0 | 0.00 | 0.00 | 0.00 | 1013.9 | |
| 20260504040232 | 0 | 222 | 0.0 | 0.0 | 0.00 | 0.00 | 0.00 | 1013.9 | |
| 20260504035727 | 0 | 220 | 0.0 | 0.0 | 0.00 | 0.00 | 0.00 | 1014.0 | |
| 20260504035225 | 0 | 219 | 0.0 | 0.0 | 0.00 | 0.00 | 0.00 | 1014.0 | |
| 20260504034722 | 0 | 216 | 0.0 | 0.0 | 0.00 | 0.00 | 0.00 | 1014.0 | |
| 20260504034219 | 0 | 231 | 0.0 | 0.0 | 0.00 | 0.00 | 0.00 | 1013.8 | |
| 20260504033717 | 0 | 226 | 0.0 | 0.0 | 0.00 | 0.00 | 0.00 | 1013.8 | |
| 20260504033214 | 0 | 216 | 0.0 | 0.0 | 0.00 | 0.00 | 0.00 | 1013.8 | |
| 20260504032711 | 0 | 214 | 0.0 | 0.0 | 0.00 | 0.00 | 0.00 | 1013.9 | |
| 20260504032208 | 0 | 208 | 0.0 | 0.0 | 0.00 | 0.00 | 0.00 | 1013.9 | |
| 20260504031705 | 0 | 218 | 0.0 | 0.0 | 0.00 | 0.00 | 0.00 | 1013.7 | |
| 20260504031202 | 0 | 228 | 0.0 | 0.0 | 0.00 | 0.00 | 0.00 | 1013.6 | |
| 20260504030658 | 0 | 225 | 0.0 | 0.0 | 0.00 | 0.00 | 0.00 | 1013.7 | |
| 20260504030155 | 0 | 220 | 0.0 | 0.0 | 0.00 | 0.00 | 0.00 | 1013.5 | |
| 20260504025652 | 0 | 210 | 0.0 | 0.0 | 0.00 | 0.00 | 0.00 | 1013.6 | |
| 20260504025148 | 0 | 216 | 0.0 | 0.0 | 0.00 | 0.00 | 0.00 | 1013.8 | |
| 20260504024646 | 0 | 209 | 0.0 | 0.0 | 0.00 | 0.00 | 0.00 | 1013.6 | |
| 20260504024142 | 0 | 217 | 0.0 | 0.0 | 0.00 | 0.00 | 0.00 | 1013.6 | |
| 20260504023639 | 0 | 224 | 0.0 | 0.0 | 0.00 | 0.00 | 0.00 | 1013.7 | |
| 20260504023135 | 0 | 224 | 0.0 | 0.0 | 0.00 | 0.00 | 0.00 | 1013.6 | |
| 20260504022631 | 0 | 224 | 0.0 | 0.0 | 0.00 | 0.00 | 0.00 | 1013.8 | |
| 20260504022127 | 0 | 227 | 0.0 | 0.0 | 0.00 | 0.00 | 0.00 | 1013.6 | |
| 20260504021626 | 0 | 207 | 0.0 | 0.0 | 0.00 | 0.00 | 0.00 | 1013.6 | |
| 20260504021122 | 0 | 216 | 0.0 | 0.0 | 0.00 | 0.00 | 0.00 | 1013.7 | |
| 20260504020619 | 0 | 228 | 0.0 | 0.0 | 0.00 | 0.00 | 0.00 | 1013.7 | |
| 20260504020115 | 0 | 228 | 0.0 | 0.0 | 0.00 | 0.00 | 0.00 | 1013.6 | |
| 20260504015612 | 0 | 228 | 0.0 | 0.0 | 0.00 | 0.00 | 0.00 | 1013.5 | |
| 20260504015108 | 0 | 214 | 0.0 | 0.0 | 0.00 | 0.00 | 0.00 | 1013.6 | |
| 20260504014604 | 0 | 204 | 0.9 | 0.9 | 0.00 | 0.00 | 0.00 | 1013.5 | |
| 20260504014101 | 0 | 218 | 0.0 | 0.0 | 0.00 | 0.00 | 0.00 | 1013.3 | |
| 20260504013559 | 0 | 223 | 0.0 | 0.0 | 0.00 | 0.00 | 0.00 | 1013.3 | |
| 20260504013055 | 0 | 235 | 0.0 | 0.0 | 0.00 | 0.00 | 0.00 | 1013.4 | |
| 20260504012553 | 0 | 226 | 0.0 | 0.0 | 0.00 | 0.00 | 0.00 | 1013.4 | |
| 20260504012051 | 0 | 223 | 0.0 | 0.0 | 0.00 | 0.00 | 0.00 | 1013.2 | |
| 20260504011547 | 0 | 214 | 0.0 | 0.0 | 0.00 | 0.00 | 0.00 | 1013.3 | |
| 20260504011043 | 0 | 217 | 0.0 | 0.0 | 0.00 | 0.00 | 0.00 | 1013.4 | |
| 20260504010539 | 0 | 212 | 0.0 | 0.0 | 0.00 | 0.00 | 0.00 | 1013.3 | |
| 20260504010036 | 0 | 214 | 0.0 | 0.0 | 0.00 | 0.00 | 0.00 | 1013.1 | |
| 20260504005532 | 0 | 217 | 0.0 | 0.0 | 0.00 | 0.00 | 0.00 | 1013.1 | |
| 20260504005030 | 0 | 217 | 0.0 | 0.0 | 0.00 | 0.00 | 0.00 | 1013.2 | |
| 20260504004528 | 0 | 218 | 0.0 | 0.0 | 0.00 | 0.00 | 0.00 | 1013.0 | |
| 20260504004024 | 0 | 212 | 0.0 | 0.0 | 0.00 | 0.00 | 0.00 | 1013.1 | |
| 20260504003520 | 0 | 206 | 0.9 | 0.9 | 0.00 | 0.00 | 0.00 | 1013.0 | |
| 20260504003017 | 0 | 211 | 0.9 | 0.9 | 0.00 | 0.00 | 0.00 | 1012.8 | |
| 20260504002514 | 0 | 204 | 0.9 | 0.9 | 0.00 | 0.00 | 0.00 | 1012.7 | |
| 20260504002012 | 0 | 230 | 0.0 | 0.0 | 0.00 | 0.00 | 0.00 | 1012.7 | |
| 20260504001509 | 0 | 222 | 0.0 | 0.9 | 0.00 | 0.00 | 0.00 | 1012.7 | |
| 20260504001005 | 0 | 224 | 0.0 | 0.0 | 0.00 | 0.00 | 0.00 | 1012.6 | |
| 20260504000503 | 0 | 228 | 0.0 | 0.0 | 0.00 | 0.00 | 0.00 | 1012.5 | |
| 20260504000000 | 0 | 220 | 0.0 | 0.0 | 0.00 | 0.00 | 0.00 | 1012.4 | |
| 20260503235458 | 0 | 225 | 0.0 | 0.0 | 0.00 | 0.00 | 0.00 | 1012.4 | |
| 20260503234954 | 0 | 214 | 0.0 | 0.0 | 0.00 | 0.00 | 0.00 | 1012.6 | |
| 20260503234452 | 0 | 215 | 0.0 | 0.0 | 0.00 | 0.00 | 0.00 | 1012.3 | |
| 20260503233950 | 0 | 208 | 0.0 | 0.0 | 0.00 | 0.00 | 0.00 | 1012.6 | |
| 20260503233446 | 0 | 217 | 0.0 | 0.0 | 0.00 | 0.00 | 0.00 | 1012.3 | |
| 20260503232943 | 0 | 220 | 0.0 | 0.0 | 0.00 | 0.00 | 0.00 | 1012.3 | |
| 20260503232440 | 0 | 214 | 0.0 | 0.0 | 0.00 | 0.00 | 0.00 | 1012.3 | |
| 20260503231938 | 0 | 221 | 0.0 | 0.0 | 0.00 | 0.00 | 0.00 | 1012.5 | |
| 20260503231435 | 0 | 246 | 0.9 | 1.7 | 0.00 | 0.00 | 0.00 | 1012.3 | |
| 20260503230931 | 0 | 229 | 0.0 | 0.0 | 0.00 | 0.00 | 0.00 | 1012.4 | |
| 20260503230428 | 0 | 233 | 0.9 | 1.7 | 0.00 | 0.00 | 0.00 | 1012.5 | |
| 20260503225925 | 0 | 282 | 1.7 | 1.7 | 0.00 | 0.00 | 0.00 | 1012.4 | |
| 20260503225422 | 0 | 259 | 0.9 | 0.9 | 0.00 | 0.00 | 0.00 | 1012.2 | |
| 20260503224918 | 0 | 178 | 0.0 | 0.0 | 0.00 | 0.00 | 0.00 | 1012.2 | |
| 20260503224415 | 0 | 204 | 2.6 | 2.6 | 0.00 | 0.00 | 0.00 | 1012.3 | |
| 20260503223912 | 0 | 195 | 0.0 | 0.9 | 0.00 | 0.00 | 0.00 | 1012.1 | |
| 20260503223410 | 0 | 304 | 0.9 | 0.9 | 0.00 | 0.00 | 0.00 | 1012.1 | |
| 20260503222910 | 0 | 335 | 3.5 | 4.3 | 0.00 | 0.00 | 0.00 | 1012.3 | |
| 20260503222409 | 0 | 261 | 0.0 | 0.0 | 0.00 | 0.00 | 0.00 | 1012.2 | |
| 20260503221907 | 0 | 328 | 2.6 | 4.3 | 0.00 | 0.00 | 0.00 | 1012.2 | |
| 20260503221406 | 0 | 208 | 0.9 | 1.7 | 0.00 | 0.00 | 0.00 | 1012.3 | |
| 20260503220901 | 0 | 215 | 0.9 | 0.9 | 0.00 | 0.00 | 0.00 | 1012.6 | |
| 20260503220358 | 0 | 237 | 0.9 | 1.7 | 0.00 | 0.00 | 0.00 | 1012.6 | |
| 20260503215855 | 0 | 244 | 0.0 | 0.9 | 0.00 | 0.00 | 0.00 | 1012.3 | |
| 20260503215352 | 0 | 315 | 3.5 | 8.7 | 0.00 | 0.00 | 0.00 | 1012.3 | |
| 20260503214849 | 0 | 196 | 2.6 | 2.6 | 0.00 | 0.00 | 0.00 | 1012.4 | |
| 20260503214347 | 0 | 25 | 0.9 | 0.9 | 0.00 | 0.00 | 0.00 | 1012.5 | |
| 20260503213844 | 0 | 213 | 1.7 | 2.6 | 0.00 | 0.00 | 0.00 | 1012.0 | |
| 20260503213342 | 0 | 29 | 3.5 | 5.2 | 0.00 | 0.00 | 0.00 | 1012.4 | |
| 20260503212838 | 0 | 211 | 0.9 | 1.7 | 0.00 | 0.00 | 0.00 | 1012.3 | |
| 20260503212336 | 0 | 219 | 1.7 | 2.6 | 0.00 | 0.00 | 0.00 | 1012.2 | |
| 20260503211833 | 0 | 225 | 1.7 | 2.6 | 0.00 | 0.00 | 0.00 | 1012.1 | |
| 20260503211330 | 0 | 2 | 6.1 | 9.6 | 0.00 | 0.00 | 0.00 | 1012.4 | |
| 20260503210825 | 0 | 279 | 1.7 | 2.6 | 0.00 | 0.00 | 0.00 | 1012.2 | |
| 20260503210323 | 0 | 27 | 7.8 | 8.7 | 0.00 | 0.00 | 0.00 | 1012.2 | |
| 20260503205818 | 0 | 229 | 0.9 | 0.9 | 0.00 | 0.00 | 0.00 | 1012.3 | |
| 20260503205314 | 0 | 209 | 1.7 | 1.7 | 0.00 | 0.00 | 0.00 | 1012.4 | |
| 20260503203135 | 0 | 306 | 1.7 | 2.6 | 0.00 | 0.00 | 0.00 | 1012.5 | |
| 20260503202632 | 0 | 306 | 1.7 | 2.6 | 0.00 | 0.00 | 0.00 | 1012.5 | |
| 20260503202131 | 0 | 306 | 1.7 | 2.6 | 0.00 | 0.00 | 0.00 | 1012.5 | |
| 20260503201628 | 0 | 281 | 4.3 | 7.8 | 0.00 | 0.00 | 0.00 | 1012.8 | |
| 20260503201125 | 0 | 26 | 0.9 | 2.6 | 0.00 | 0.00 | 0.00 | 1012.8 | |
| 20260503200621 | 0 | 21 | 5.2 | 7.0 | 0.00 | 0.00 | 0.00 | 1012.8 | |
| 20260503200118 | 0 | 355 | 4.3 | 7.0 | 0.00 | 0.00 | 0.00 | 1012.8 | |
| 20260503195615 | 0 | 305 | 2.6 | 4.3 | 0.00 | 0.00 | 0.00 | 1012.8 | |
| 20260503195112 | 0 | 305 | 3.5 | 4.3 | 0.00 | 0.00 | 0.00 | 1013.2 | |
| 20260503194609 | 0 | 285 | 3.5 | 6.1 | 0.00 | 0.00 | 0.00 | 1013.1 | |
| 20260503194104 | 0 | 345 | 6.1 | 8.7 | 0.00 | 0.00 | 0.00 | 1013.2 | |
| 20260503193601 | 0 | 3 | 5.2 | 7.8 | 0.00 | 0.00 | 0.00 | 1013.2 | |
| 20260503193056 | 0 | 264 | 0.9 | 1.7 | 0.00 | 0.00 | 0.00 | 1013.1 | |
| 20260503192552 | 0 | 336 | 1.7 | 2.6 | 0.00 | 0.00 | 0.00 | 1013.4 | |
| 20260503192048 | 0 | 300 | 0.9 | 1.7 | 0.00 | 0.00 | 0.00 | 1013.2 | |
| 20260503191545 | 0 | 215 | 3.5 | 4.3 | 0.00 | 0.00 | 0.00 | 1013.6 | |
| 20260503191042 | 0 | 193 | 3.5 | 6.1 | 0.00 | 0.00 | 0.00 | 1013.6 | |
| 20260503190539 | 0 | 311 | 2.6 | 5.2 | 0.00 | 0.00 | 0.00 | 1013.4 | |
| 20260503190036 | 0 | 313 | 1.7 | 2.6 | 0.00 | 0.00 | 0.00 | 1013.5 | |
| 20260503185533 | 0 | 209 | 3.5 | 6.1 | 0.00 | 0.00 | 0.00 | 1013.6 | |
| 20260503185032 | 0 | 282 | 4.3 | 7.0 | 0.00 | 0.00 | 0.00 | 1013.5 | |
| 20260503184529 | 0 | 358 | 8.7 | 12.2 | 0.00 | 0.00 | 0.00 | 1013.7 | |
| 20260503184025 | 0 | 239 | 0.0 | 0.9 | 0.00 | 0.00 | 0.00 | 1013.6 | |
| 20260503183522 | 0 | 21 | 4.3 | 6.1 | 0.00 | 0.00 | 0.00 | 1013.7 | |
| 20260503183019 | 0 | 354 | 7.0 | 8.7 | 0.00 | 0.00 | 0.00 | 1013.6 | |
| 20260503182518 | 0 | 226 | 3.5 | 4.3 | 0.00 | 0.00 | 0.00 | 1013.7 | |
| 20260503182015 | 0 | 257 | 5.2 | 7.8 | 0.00 | 0.00 | 0.00 | 1013.6 | |
| 20260503181512 | 0 | 43 | 2.6 | 2.6 | 0.00 | 0.00 | 0.00 | 1013.8 | |
| 20260503181008 | 0 | 275 | 2.6 | 4.3 | 0.00 | 0.00 | 0.00 | 1013.8 | |
| 20260503180506 | 0 | 259 | 2.6 | 4.3 | 0.00 | 0.00 | 0.00 | 1013.9 | |
| 20260503180003 | 0 | 201 | 5.2 | 8.7 | 0.00 | 0.00 | 0.00 | 1013.9 | |
| 20260503175500 | 0 | 333 | 4.3 | 7.0 | 0.00 | 0.00 | 0.00 | 1014.1 | |
| 20260503174956 | 0 | 220 | 0.9 | 0.9 | 0.00 | 0.00 | 0.00 | 1014.0 | |
| 20260503174455 | 0 | 3 | 3.5 | 5.2 | 0.00 | 0.00 | 0.00 | 1014.0 | |
| 20260503173950 | 0 | 209 | 1.7 | 1.7 | 0.00 | 0.00 | 0.00 | 1014.1 | |
| 20260503173446 | 0 | 354 | 6.1 | 9.6 | 0.00 | 0.00 | 0.00 | 1014.2 | |
| 20260503172943 | 0 | 332 | 7.8 | 12.2 | 0.00 | 0.00 | 0.00 | 1014.3 | |
| 20260503172440 | 0 | 325 | 3.5 | 5.2 | 0.00 | 0.00 | 0.00 | 1014.1 | |
| 20260503171937 | 0 | 288 | 5.2 | 7.0 | 0.00 | 0.00 | 0.00 | 1014.3 | |
| 20260503171433 | 0 | 343 | 0.9 | 1.7 | 0.00 | 0.00 | 0.00 | 1014.2 | |
| 20260503170931 | 0 | 259 | 0.9 | 1.7 | 0.00 | 0.00 | 0.00 | 1014.5 | |
| 20260503170427 | 0 | 33 | 2.6 | 4.3 | 0.00 | 0.00 | 0.00 | 1014.5 | |
| 20260503150819 | 0 | 16 | 7.8 | 8.7 | 0.00 | 0.00 | 0.00 | 1014.6 | |
| 20260503150314 | 0 | 225 | 4.3 | 6.1 | 0.00 | 0.00 | 0.00 | 1014.7 | |
| 20260503140240 | 0 | 32 | 4.3 | 5.2 | 0.00 | 0.00 | 0.00 | 1014.6 | |
| 20260503131209 | 0 | 176 | 6.1 | 7.8 | 0.00 | 0.00 | 0.00 | 1014.6 | |
| 20260503130707 | 0 | 45 | 4.3 | 7.0 | 0.00 | 0.00 | 0.00 | 1014.6 | |
| 20260503130204 | 0 | 49 | 2.6 | 5.2 | 0.00 | 0.00 | 0.00 | 1014.6 | |
| 20260503120130 | 0 | 327 | 3.5 | 5.2 | 0.00 | 0.00 | 0.00 | 1014.0 | |
| 20260503110557 | 0 | 39 | 3.5 | 4.3 | 0.00 | 0.00 | 0.00 | 1013.5 |